Find Starlink 37641

NORAD ID: 69445 Int'l Des: 2026-127 Owner: SPXS Country: US Constellation: starlink operational
LEOCIRCULAR

当前视图

正在加载3D地球...

About Starlink 37641

Starlink 37641 (NORAD 69445) is a starlink constellation satellite launched Jun 8, 2026 by SPXS of US. It operates in LEO, CIRCULAR orbit with a mass of 575.00 kg.

即将过境

Passes for default location (London). Set your location on the main map for personalized predictions.

高度历史

Loading altitude history...

两行轨道根数

1 69445U 26127C 26206.33716181 .00083375 00000-0 14900-2 0 9994
2 69445 53.1589 73.8380 0001644 77.5782 282.5411 15.49330730 7400
Epoch: Jul 25, 2026 • Age: 25 hours

当前状态

高度 417.9 km
远地点 / 近地点 N/A
速度 7.66 km/s
星下点 16.68°N, 3.45°E
发射日期 Jun 8, 2026
运行时间 0.1 years
类型 internet

技术详情

分类 Payload
质量 575.00 kg
干质量 530.00 kg
总质量 575.00 kg
长度 0.30 m
直径 4.10 m
跨度 29.00 m
形状 Box + pan
制造商 SPXS
平台类型 Starlink V2MO
阶段状态 In Orbit
所有者/国家 SPXS/US

Most Searched